{"data":{"norad_id":64603,"intl_designator":"2025-137K","name":"STARLINK-34475","alt_names":[],"object_type":"PAYLOAD","status":"ACTIVE","operator":null,"country":"US","launch_date":"2025-06-25","launch_site_code":"AFETR","launch_vehicle":null,"mission":null,"orbit_class":"UNKNOWN","rcs_meters":null,"size_class":null,"mass_kg":null,"dimensions":null,"purposes":["comms"],"wikipedia_slug":null,"has_3d_model":false,"image_url":null,"decayed_at":null,"tle_current":{"epoch":"2026-05-24T23:21:40.954752Z","epoch_age_seconds":77372,"freshness":"FRESH","line1":"1 64603U 25137K   26144.97339068  .00009109  00000+0  31923-3 0  9998","line2":"2 64603  53.1585 340.9467 0000859  66.1501 293.9590 15.30205152 52415","mean_motion":15.30205152,"eccentricity":8.59e-5,"inclination_deg":53.1585,"raan_deg":340.9467,"arg_perigee_deg":66.1501,"mean_anomaly_deg":293.959,"bstar":0.00031923,"rev_number":5241,"period_min":94.10502886609,"perigee_km":474.61098489777,"apogee_km":475.78838814051,"semimajor_km":6853.3366865191,"source":"CELESTRAK","updated_at":"2026-05-25T13:38:20.494314Z"}}}